Regional Weather Roundup
Issued by NWS Midland/Odessa, TX

Skip options and go directly to product.
Home | Oldest Version | Previous Version | Current Version | All | Text Only | Save Text | Print | Product List | Glossary Off

Skip product version selection by date and time.   

407
ASUS44 KMAF 281001
RWRMAF
MIDLAND AREA WEATHER ROUNDUP
NATIONAL WEATHER SERVICE MIDLAND TX
500 AM CDT SAT MAY 28 2016

...IN SOUTHWEST TEXAS AND SOUTHEAST NEW MEXICO...

CITY           SKY/WX    TMP DP  RH WIND       PRES   REMARKS
ALPINE         CLEAR     49  22  34 S7        30.06R
ANDREWS        FAIR      64  24  22 W6        29.89R
ARTESIA        CLEAR     59  27  29 NW13      29.92R
BIG SPRING     CLEAR     60  33  35 SE12      29.90R
CARLSBAD       CLEAR     57  21  24 NE7       29.90R
DRYDEN           N/A     63  45  51 N9        29.87R
FORT STOCKTON  CLEAR     65  18  16 S8        29.91R
GUAD PASS      NOT AVBL
HOBBS          CLEAR     57  25  28 N8        29.93R
MARFA          CLEAR     45  17  32 NW9       30.04R
MIDLAND AIRPK  CLEAR     66  17  15 W6        29.88R
MIDLAND INTL   CLEAR     63  18  17 S8        29.89R
ODESSA         CLEAR     63  19  18 SW7       29.90R
PECOS          CLEAR     54  18  24 CALM      29.88S
PRESIDIO       FAIR      66  15  14 NW6       29.90R
SEMINOLE       CLEAR     59  30  33 NW8       29.91R
SNYDER           N/A     61  60  97 S8        29.87R
WINK           CLEAR     56  24  29 SE6       29.87R
$$
...OTHER STATIONS IN TEXAS...

CITY           SKY/WX    TMP DP  RH WIND       PRES   REMARKS
ABILENE        CLEAR     64  62  93 S5        29.85R
AMARILLO       CLEAR     49  41  74 N7        29.95R
AUSTIN         MOCLDY    65  65 100 CALM      29.86R FOG
BROWNSVILLE    CLOUDY    81  79  94 E13       29.81R
CORPUS CHRISTI PTCLDY    81  77  88 SE17G26   29.81R
DALLAS FTW     CLOUDY    67  64  90 SE10      29.84R
DEL RIO        CLOUDY    68  66  93 CALM      29.82R
EL PASO        CLEAR     60  17  18 SE8       29.94R
HOUSTON INT    PTCLDY    65  65 100 CALM      29.86S
LUBBOCK        CLEAR     55  43  63 NE9       29.90R
SAN ANGELO     CLEAR     65  62  90 S7        29.87R
SAN ANTONIO    CLOUDY    70  66  87 E6        29.86R
WACO           CLOUDY    65  64  97 SE12      29.87R FOG
WICHITA FALLS  NOT AVBL
$$
...OTHER LOCATIONS IN NEW MEXICO...

CITY           SKY/WX    TMP DP  RH WIND       PRES   REMARKS
ALAMAGORDO     CLEAR     55  19  24 SE3       29.94S
ALBUQUERQUE    CLEAR     56  31  38 N5        30.02R
CANNON AFB     CLEAR     49  41  73 NE9       29.97R
CLOVIS         CLEAR     48  39  71 N9        29.98R
HOLLOMAN AFB   CLEAR     59  20  21 SE5       29.93S
ROSWELL        CLEAR     60  34  37 N10       29.94R
RUIDOSO          N/A     50  19  29 W5        30.10S
SANTA FE       CLEAR     44  31  60 N12       30.06R WCI  38
TRUTH OR CONSE CLEAR     62  24  23 NW9       29.97S
TUCUMCARI      CLEAR     47  40  76 S3        29.97R
$$

USA.gov is the U.S. government's official web portal to all federal, state and local government web resources and services.